Overview Statistics Trail Chart Weather Telemetry Raw packets
 

This is the latest recevied weather packets stored in our database for station/object KE8WMS. If no packets are shown the sender has not sent any weather packets the latest 10 day(s).

<< 56 57 58 59 60 61 62 >>
Time Temp. Humidity Pressure Rain* Wind** Luminosity Snow
1777480612 9.44° C 99% 1006.1 hPa 0 mm - 175 W/m² -
1777480309 9.44° C 99% 1006 hPa 0 mm - 212 W/m² -
1777480005 9.44° C 99% 1005.8 hPa 0 mm - 184 W/m² -
1777479702 9.44° C 99% 1006.1 hPa 0 mm - 221 W/m² -
1777479400 9.44° C 99% 1006.3 hPa 1.78 mm - 225 W/m² -
1777479096 8.89° C 99% 1006.4 hPa 1.78 mm - 123 W/m² -
1777478793 9.44° C 99% 1006.5 hPa 1.78 mm - 84 W/m² -
1777478490 9.44° C 99% 1006.5 hPa 6.1 mm - 72 W/m² -
1777478187 8.89° C 99% 1006.7 hPa 6.1 mm - 84 W/m² -
1777477883 9.44° C 99% 1007 hPa 4.83 mm - 66 W/m² -
1777477578 9.44° C 99% 1007.2 hPa 4.32 mm - 42 W/m² -
1777477275 9.44° C 99% 1007.2 hPa 1.27 mm - 36 W/m² -
1777476971 9.44° C 99% 1007 hPa 0 mm - 28 W/m² -
1777476670 9.44° C 99% 1006.9 hPa 0 mm - 28 W/m² -
1777476366 10° C 99% 1006.5 hPa 0 mm - 53 W/m² -
1777476062 10° C 99% 1006.7 hPa 0 mm - 72 W/m² -
1777475757 10° C 99% 1006.5 hPa 0 mm - 165 W/m² -
1777475454 10.56° C 99% 1006.2 hPa 0 mm - 263 W/m² -
1777475149 10.56° C 99% 1006.4 hPa 0 mm - 306 W/m² -
1777474846 10.56° C 99% 1006.4 hPa 0 mm - 246 W/m² -
1777474541 10.56° C 99% 1006.2 hPa 0 mm - 259 W/m² -
1777474239 10.56° C 99% 1006.5 hPa 0 mm - 272 W/m² -
1777473936 10° C 99% 1006.7 hPa 0 mm - 251 W/m² -
1777473634 10° C 99% 1006.8 hPa 1.78 mm - 195 W/m² -
1777473329 10.56° C 99% 1006.9 hPa 1.78 mm - 139 W/m² -

* Rain latest hour (hover to see other rain measurements)
** Current wind speed in m/s (hover to see current wind gust speed)